When you browse on this site, cookies collect data to enhance your experience and personalize the content and advertising you see.
Visit our Privacy Policy to learn more. By continuing to use the site, you agree to this use of cookies and data.
  • In Hungary
  • List of Countries
  • For 7 days
  • Water Temperature
  • Weather Map
  • News
  • Weather Widgets
  • user-avatar
    Login

    Hourly Weather Suholinka

    Today, 22 October, Tuesday

    Time Temperature Precipitation Wind Pressure Humidity
    00:00 +9°C° 0 mm 7 mps 761 mmHg 79%
    01:00 +9°C° 0 mm 7 mps 760 mmHg 79%
    02:00 +9°C° 0 mm 7 mps 760 mmHg 79%
    03:00 +9°C° 0 mm 7 mps 759 mmHg 79%
    04:00 +9°C° 1 mm 7 mps 759 mmHg 83%
    05:00 +9°C° 1 mm 6 mps 759 mmHg 86%
    06:00 +9°C° 1 mm 6 mps 759 mmHg 90%
    07:00 +9°C° 0.9 mm 5 mps 759 mmHg 91%
    08:00 +9°C° 0.9 mm 5 mps 759 mmHg 92%
    09:00 +10°C° 0.9 mm 4 mps 759 mmHg 93%
    10:00 +11°C° 0 mm 3 mps 760 mmHg 88%
    11:00 +12°C° 0 mm 3 mps 760 mmHg 82%
    12:00 +14°C° 0 mm 2 mps 760 mmHg 76%
    13:00 +14°C° 0 mm 2 mps 760 mmHg 76%
    14:00 +13°C° 0 mm 3 mps 760 mmHg 75%
    15:00 +13°C° 0 mm 3 mps 760 mmHg 74%
    16:00 +12°C° 0 mm 3 mps 761 mmHg 79%
    17:00 +10°C° 0 mm 3 mps 761 mmHg 83%
    18:00 +9°C° 0 mm 3 mps 761 mmHg 87%
    19:00 +9°C° 0 mm 3 mps 761 mmHg 87%
    20:00 +8°C° 0 mm 2 mps 761 mmHg 87%
    21:00 +8°C° 0 mm 2 mps 762 mmHg 86%
    22:00 +7°C° 0 mm 2 mps 761 mmHg 87%
    23:00 +8°C° 0 mm 1 mps 761 mmHg 88%

    Tomorrow, 23 October, Wednesday

    Time Temperature Precipitation Wind Pressure Humidity
    00:00 +8°C° 0 mm 1 mps 761 mmHg 88%
    01:00 +7°C° 0 mm 1 mps 762 mmHg 88%
    02:00 +6°C° 0 mm 2 mps 762 mmHg 88%
    03:00 +6°C° 0 mm 2 mps 762 mmHg 88%
    04:00 +5°C° 0 mm 2 mps 762 mmHg 88%
    05:00 +5°C° 0 mm 2 mps 762 mmHg 88%
    06:00 +5°C° 0 mm 2 mps 762 mmHg 88%
    07:00 +6°C° 0 mm 2 mps 762 mmHg 85%
    08:00 +6°C° 0 mm 2 mps 761 mmHg 83%
    09:00 +7°C° 0 mm 2 mps 761 mmHg 80%
    10:00 +9°C° 0 mm 3 mps 761 mmHg 76%
    11:00 +10°C° 0 mm 4 mps 761 mmHg 73%
    12:00 +10°C° 0 mm 5 mps 760 mmHg 69%
    13:00 +10°C° 0 mm 5 mps 760 mmHg 69%
    14:00 +10°C° 0 mm 5 mps 759 mmHg 69%
    15:00 +12°C° 0 mm 5 mps 759 mmHg 70%
    16:00 +10°C° 0 mm 5 mps 759 mmHg 72%
    17:00 +11°C° 0 mm 4 mps 758 mmHg 75%
    18:00 +10°C° 0 mm 4 mps 758 mmHg 78%
    19:00 +11°C° 0 mm 4 mps 758 mmHg 80%
    20:00 +11°C° 0 mm 4 mps 758 mmHg 81%
    21:00 +11°C° 0 mm 4 mps 758 mmHg 83%
    22:00 +11°C° 0 mm 4 mps 758 mmHg 84%
    23:00 +11°C° 0 mm 4 mps 758 mmHg 85%

    Day after tomorrow, 24 October, Thursday

    Time Temperature Precipitation Wind Pressure Humidity
    00:00 +11°C° 0 mm 4 mps 758 mmHg 86%
    01:00 +11°C° 0 mm 3 mps 758 mmHg 88%
    02:00 +10°C° 0 mm 3 mps 759 mmHg 90%
    03:00 +10°C° 0 mm 3 mps 759 mmHg 92%
    04:00 +9°C° 0 mm 3 mps 759 mmHg 93%
    05:00 +9°C° 0 mm 3 mps 760 mmHg 94%
    06:00 +8°C° 0 mm 3 mps 760 mmHg 94%
    07:00 +9°C° 0 mm 2 mps 760 mmHg 89%
    08:00 +10°C° 0 mm 2 mps 760 mmHg 84%
    09:00 +10°C° 0 mm 2 mps 760 mmHg 79%
    10:00 +12°C° 0 mm 2 mps 761 mmHg 74%
    11:00 +13°C° 0 mm 2 mps 761 mmHg 70%
    12:00 +14°C° 0 mm 2 mps 761 mmHg 65%
    13:00 +14°C° 0 mm 2 mps 761 mmHg 66%
    14:00 +14°C° 0 mm 1 mps 761 mmHg 67%
    15:00 +14°C° 0 mm 1 mps 761 mmHg 69%
    16:00 +14°C° 0 mm 1 mps 761 mmHg 71%
    17:00 +13°C° 0 mm 1 mps 761 mmHg 74%
    18:00 +12°C° 0 mm 1 mps 761 mmHg 77%
    19:00 +12°C° 0 mm 1 mps 761 mmHg 77%
    20:00 +12°C° 0 mm 1 mps 761 mmHg 78%
    21:00 +12°C° 0 mm 1 mps 761 mmHg 78%
    22:00 +12°C° 0 mm 1 mps 761 mmHg 80%
    23:00 +12°C° 0 mm 1 mps 761 mmHg 81%

    25 October, Friday

    Time Temperature Precipitation Wind Pressure Humidity
    00:00 +12°C° 0 mm 1 mps 761 mmHg 82%
    01:00 +12°C° 0.3 mm 1 mps 761 mmHg 86%
    02:00 +12°C° 0.3 mm 1 mps 761 mmHg 89%
    03:00 +12°C° 0.3 mm 2 mps 761 mmHg 92%
    04:00 +12°C° 0.2 mm 2 mps 760 mmHg 93%
    05:00 +12°C° 0.2 mm 2 mps 760 mmHg 95%
    06:00 +12°C° 0.2 mm 2 mps 760 mmHg 96%
    07:00 +12°C° 0 mm 2 mps 761 mmHg 94%
    08:00 +12°C° 0 mm 2 mps 761 mmHg 92%
    09:00 +13°C° 0 mm 2 mps 761 mmHg 91%
    10:00 +13°C° 0 mm 2 mps 761 mmHg 86%
    11:00 +13°C° 0 mm 3 mps 761 mmHg 81%
    12:00 +13°C° 0 mm 3 mps 761 mmHg 76%
    13:00 +13°C° 0 mm 3 mps 762 mmHg 74%
    14:00 +13°C° 0 mm 3 mps 762 mmHg 72%
    15:00 +13°C° 0 mm 3 mps 762 mmHg 70%
    16:00 +12°C° 0 mm 3 mps 762 mmHg 73%
    17:00 +11°C° 0 mm 3 mps 762 mmHg 76%
    18:00 +9°C° 0 mm 2 mps 762 mmHg 80%
    19:00 +9°C° 0 mm 2 mps 762 mmHg 81%
    20:00 +9°C° 0 mm 2 mps 762 mmHg 82%
    21:00 +8°C° 0 mm 2 mps 763 mmHg 84%
    22:00 +9°C° 0 mm 1 mps 763 mmHg 85%
    23:00 +9°C° 0 mm 1 mps 762 mmHg 86%

    26 October, Saturday

    Time Temperature Precipitation Wind Pressure Humidity
    00:00 +9°C° 0 mm 1 mps 762 mmHg 87%
    01:00 +9°C° 0 mm 1 mps 762 mmHg 88%
    02:00 +7°C° 0 mm 2 mps 763 mmHg 88%
    03:00 +7°C° 0 mm 2 mps 763 mmHg 88%
    04:00 +7°C° 0 mm 2 mps 762 mmHg 89%
    05:00 +7°C° 0 mm 2 mps 762 mmHg 90%
    06:00 +7°C° 0 mm 2 mps 762 mmHg 91%
    07:00 +8°C° 0 mm 3 mps 762 mmHg 89%
    08:00 +10°C° 0 mm 4 mps 762 mmHg 87%
    09:00 +11°C° 0 mm 4 mps 762 mmHg 84%
    10:00 +12°C° 0 mm 5 mps 762 mmHg 80%
    11:00 +14°C° 0 mm 6 mps 761 mmHg 76%
    12:00 +15°C° 0 mm 6 mps 761 mmHg 71%
    13:00 +15°C° 0 mm 6 mps 761 mmHg 71%
    14:00 +15°C° 0 mm 6 mps 760 mmHg 71%
    15:00 +15°C° 0 mm 5 mps 760 mmHg 70%
    16:00 +14°C° 0 mm 5 mps 760 mmHg 72%
    17:00 +13°C° 0 mm 5 mps 760 mmHg 73%
    18:00 +12°C° 0 mm 5 mps 760 mmHg 74%
    19:00 +12°C° 0 mm 5 mps 760 mmHg 74%
    20:00 +12°C° 0 mm 5 mps 760 mmHg 74%
    21:00 +10°C° 0 mm 5 mps 760 mmHg 74%
    22:00 +10°C° 0 mm 5 mps 760 mmHg 76%
    23:00 +11°C° 0 mm 4 mps 760 mmHg 77%

    27 October, Sunday

    Time Temperature Precipitation Wind Pressure Humidity
    00:00 +10°C° 0 mm 4 mps 760 mmHg 78%
    01:00 +10°C° 0 mm 4 mps 760 mmHg 79%
    02:00 +10°C° 0 mm 4 mps 760 mmHg 80%
    03:00 +8°C° 0 mm 4 mps 760 mmHg 80%
    04:00 +8°C° 0 mm 4 mps 760 mmHg 80%
    05:00 +8°C° 0 mm 4 mps 760 mmHg 80%
    06:00 +7°C° 0 mm 4 mps 759 mmHg 80%
    07:00 +8°C° 0 mm 4 mps 759 mmHg 74%
    08:00 +9°C° 0 mm 5 mps 759 mmHg 69%
    09:00 +10°C° 0 mm 5 mps 759 mmHg 64%
    10:00 +13°C° 0 mm 6 mps 759 mmHg 59%
    11:00 +14°C° 0 mm 6 mps 759 mmHg 55%
    12:00 +15°C° 0 mm 6 mps 759 mmHg 50%
    13:00 +15°C° 0 mm 6 mps 759 mmHg 51%
    14:00 +15°C° 0 mm 5 mps 758 mmHg 52%
    15:00 +15°C° 0 mm 5 mps 758 mmHg 53%
    16:00 +14°C° 0 mm 5 mps 757 mmHg 55%
    17:00 +13°C° 0 mm 5 mps 757 mmHg 57%
    18:00 +12°C° 0 mm 5 mps 757 mmHg 59%
    19:00 +12°C° 0 mm 5 mps 757 mmHg 57%
    20:00 +10°C° 0 mm 5 mps 756 mmHg 56%
    21:00 +10°C° 0 mm 5 mps 756 mmHg 54%
    22:00 +10°C° 0 mm 6 mps 755 mmHg 55%
    23:00 +10°C° 0 mm 6 mps 755 mmHg 56%

    28 October, Monday

    Time Temperature Precipitation Wind Pressure Humidity
    00:00 +9°C° 0 mm 6 mps 755 mmHg 57%
    01:00 +9°C° 0 mm 6 mps 754 mmHg 59%
    02:00 +9°C° 0 mm 6 mps 754 mmHg 61%
    03:00 +9°C° 0 mm 6 mps 753 mmHg 63%
    04:00 +9°C° 0 mm 6 mps 752 mmHg 63%
    05:00 +9°C° 0 mm 6 mps 752 mmHg 64%
    06:00 +8°C° 0 mm 7 mps 751 mmHg 64%
    07:00 +9°C° 0 mm 7 mps 751 mmHg 62%
    08:00 +10°C° 0 mm 7 mps 750 mmHg 60%
    09:00 +11°C° 0 mm 8 mps 750 mmHg 57%
    10:00 +11°C° 0.1 mm 8 mps 750 mmHg 59%
    11:00 +12°C° 0.1 mm 8 mps 750 mmHg 60%
    12:00 +12°C° 0.1 mm 8 mps 750 mmHg 61%
    13:00 +11°C° 1.2 mm 7 mps 749 mmHg 70%
    14:00 +10°C° 1.2 mm 6 mps 749 mmHg 80%
    15:00 +8°C° 1.2 mm 5 mps 749 mmHg 89%
    16:00 +8°C° 0.2 mm 5 mps 749 mmHg 88%
    17:00 +8°C° 0.2 mm 4 mps 749 mmHg 88%
    18:00 +8°C° 0.2 mm 4 mps 749 mmHg 87%
    19:00 +7°C° 0 mm 4 mps 749 mmHg 84%
    20:00 +6°C° 0 mm 4 mps 749 mmHg 80%
    21:00 +5°C° 0 mm 4 mps 749 mmHg 77%
    22:00 +5°C° 0 mm 4 mps 749 mmHg 78%
    23:00 +5°C° 0 mm 4 mps 749 mmHg 79%
    Show more